User: anonymous   Login
Location: Unspecified
(0.0000°N, 0.0000°E)
Time: 00:13:41
(UTC+00:00)
Language:

AIST 2 - Orbit

View from above orbital plane
View from above orbital plane
View from above satellite
View from above satellite

Ground track
Ground track

The orbit data is extracted from the following two-line orbital elements,

1 39133U 13015D   17328.58136736 +.00000299 +00000-0 +33730-4 0  9999
2 39133 064.8718 138.6156 0036697 255.0216 104.6840 15.04430554252033
Epoch (UTC): 24 November 2017 13:57:10
Eccentricity: 0.0036697
inclination: 64.8718°
perigee height: 528 km
apogee height: 578 km
right ascension of ascending node: 138.6156°
argument of perigee: 255.0216°
revolutions per day: 15.04430554
mean anomaly at epoch: 104.6840°
orbit number at epoch: 25203

The dashed part of the orbit path shows where the satellite is in the earth's shadow,  

DLR